Simultaneous Nadir Overpasses (SNOs) Predictions

Prediction of SNOs between NOAA-20 and LANDSAT-8 Satellite Orbit:

Table of predicted SNOs for the next 14.0 days since TLE Epoch: 11/26/2022
Index Date (NOAA-20) Time (NOAA-20) Lat,Lon (NOAA-20) SZA (NOAA-20 ) Date (LANDSAT-8) Time (LANDSAT-8) Lat,Lon (LANDSAT-8) SZA (LANDSAT-8 ) Distance(km) Time Diff (sec)
1 11/26/2022 23:39:44 70.02,-178.58 90.99 11/26/2022 23:40:11 70.01,-178.61 90.98 2.03 27
2 11/27/2022 00:30:26 -69.93, -11.12 89.10 11/27/2022 00:29:40 -69.95, -11.06 89.08 2.92 46
3 11/29/2022 15:05:58 -70.44, 129.24 88.13 11/29/2022 15:07:09 -70.29, 130.03 88.28 33.52 71
4 11/29/2022 15:56:35 69.97, -62.71 91.41 11/29/2022 15:56:40 69.97, -62.79 91.41 2.83 5
5 11/29/2022 16:47:17 -69.87, 104.75 88.69 11/29/2022 16:46:10 -69.86, 104.69 88.70 2.51 67
6 12/02/2022 07:22:44 -70.07,-114.40 88.08 12/02/2022 07:23:42 -70.08,-114.40 88.07 1.38 58
7 12/02/2022 08:13:28 69.96, 53.07 91.83 12/02/2022 08:13:09 69.98, 53.10 91.84 1.64 19
8 12/02/2022 09:03:58 -69.23,-138.54 88.91 12/02/2022 09:02:49 -69.32,-140.17 88.82 64.61 69
9 12/04/2022 23:39:36 -70.02, 1.46 87.76 12/04/2022 23:40:12 -70.02, 1.39 87.76 2.67 36
10 12/05/2022 00:30:20 69.92, 168.93 92.15 12/05/2022 00:29:39 69.91, 168.88 92.14 1.74 41
11 12/07/2022 15:05:55 70.55, -50.90 93.11 12/07/2022 15:07:05 70.43, -49.77 92.97 44.09 70
12 12/07/2022 15:56:29 -70.02, 117.23 87.43 12/07/2022 15:56:41 -69.99, 117.24 87.46 3.26 12
13 12/07/2022 16:47:12 69.87, -75.23 92.42 12/07/2022 16:46:08 69.88, -75.27 92.44 2.26 64



Historial Predications of SNOs between NOAA-20 and LANDSAT-8
